Tabellarische Ansicht des 1.11.2020


Die einzelnen Werte des Tages

Uhrzeit Temperatur Luftdruck Luftfeuchte Wind Hi-Wind Taupunkt THW Index Wind Chill Heat Index Solar- strahlung Regen

00:00

12.6 C

1010.9 hpa

91 %

1.6 km/h aus 117

8.0 km/h aus S

11.1 C

12.6 C

12.6 C

12.6 C

0 W/m

0.25 mm

00:05

12.5 C

1010.9 hpa

91 %

1.6 km/h aus 115

8.0 km/h aus S

11.1 C

12.6 C

12.5 C

12.6 C

0 W/m

0.00 mm

00:10

12.5 C

1010.9 hpa

91 %

3.2 km/h aus 117

11.3 km/h aus S

11.1 C

12.6 C

12.5 C

12.6 C

0 W/m

0.00 mm

00:15

12.5 C

1010.9 hpa

91 %

4.8 km/h aus 114

17.7 km/h aus S

11.1 C

12.6 C

12.5 C

12.6 C

0 W/m

0.00 mm

00:20

12.5 C

1010.9 hpa

91 %

4.8 km/h aus 115

16.1 km/h aus S

11.1 C

12.6 C

12.5 C

12.6 C

0 W/m

0.00 mm

00:25

12.6 C

1010.9 hpa

91 %

6.4 km/h aus 117

17.7 km/h aus S

11.1 C

12.4 C

12.3 C

12.6 C

0 W/m

0.00 mm

00:30

12.6 C

1011.0 hpa

91 %

4.8 km/h aus 117

17.7 km/h aus SSE

11.1 C

12.6 C

12.6 C

12.6 C

0 W/m

0.00 mm

00:35

12.6 C

1011.0 hpa

92 %

3.2 km/h aus 116

14.5 km/h aus S

11.3 C

12.7 C

12.6 C

12.7 C

0 W/m

0.00 mm

00:40

12.6 C

1011.0 hpa

92 %

6.4 km/h aus 114

20.9 km/h aus SSW

11.3 C

12.4 C

12.4 C

12.7 C

0 W/m

0.00 mm

00:45

12.7 C

1010.9 hpa

92 %

9.7 km/h aus 115

22.5 km/h aus SSW

11.4 C

11.9 C

11.9 C

12.7 C

0 W/m

0.00 mm

00:50

12.8 C

1010.9 hpa

92 %

6.4 km/h aus 116

22.5 km/h aus S

11.5 C

12.6 C

12.6 C

12.8 C

0 W/m

0.00 mm

00:55

12.8 C

1010.9 hpa

92 %

6.4 km/h aus 116

17.7 km/h aus SSE

11.5 C

12.6 C

12.6 C

12.8 C

0 W/m

0.00 mm

01:00

12.8 C

1010.9 hpa

92 %

3.2 km/h aus 117

17.7 km/h aus SSE

11.5 C

12.8 C

12.8 C

12.8 C

0 W/m

0.00 mm

01:05

12.8 C

1010.9 hpa

92 %

6.4 km/h aus 115

19.3 km/h aus S

11.6 C

12.7 C

12.6 C

12.9 C

0 W/m

0.00 mm

01:10

12.8 C

1010.9 hpa

92 %

8.0 km/h aus 115

20.9 km/h aus SSE

11.6 C

12.4 C

12.3 C

12.9 C

0 W/m

0.00 mm

01:15

12.9 C

1010.8 hpa

92 %

8.0 km/h aus 117

17.7 km/h aus S

11.6 C

12.4 C

12.4 C

12.9 C

0 W/m

0.00 mm

01:20

12.8 C

1010.8 hpa

92 %

8.0 km/h aus 116

22.5 km/h aus S

11.6 C

12.4 C

12.3 C

12.9 C

0 W/m

0.00 mm

01:25

12.8 C

1010.8 hpa

92 %

4.8 km/h aus 117

16.1 km/h aus S

11.6 C

12.9 C

12.8 C

12.9 C

0 W/m

0.00 mm

01:30

12.9 C

1010.8 hpa

92 %

6.4 km/h aus 114

20.9 km/h aus S

11.6 C

12.7 C

12.7 C

12.9 C

0 W/m

0.00 mm

01:35

12.9 C

1010.8 hpa

92 %

6.4 km/h aus 115

17.7 km/h aus S

11.6 C

12.7 C

12.7 C

12.9 C

0 W/m

0.00 mm

01:40

12.9 C

1010.8 hpa

92 %

9.7 km/h aus 117

20.9 km/h aus S

11.6 C

12.2 C

12.1 C

12.9 C

0 W/m

0.00 mm

01:45

12.9 C

1011.0 hpa

92 %

8.0 km/h aus 117

25.7 km/h aus S

11.6 C

12.4 C

12.4 C

12.9 C

0 W/m

0.00 mm

01:50

12.9 C

1011.0 hpa

92 %

12.9 km/h aus 117

25.7 km/h aus S

11.7 C

11.7 C

11.6 C

13.0 C

0 W/m

0.00 mm

01:55

12.9 C

1011.0 hpa

92 %

6.4 km/h aus 116

20.9 km/h aus SSE

11.7 C

12.8 C

12.8 C

13.0 C

0 W/m

0.00 mm

02:00

12.9 C

1011.1 hpa

92 %

8.0 km/h aus 115

20.9 km/h aus SSE

11.7 C

12.6 C

12.5 C

13.0 C

0 W/m

0.00 mm

02:05

12.9 C

1011.1 hpa

92 %

9.7 km/h aus 115

20.9 km/h aus S

11.7 C

12.3 C

12.2 C

13.0 C

0 W/m

0.00 mm

02:10

12.9 C

1011.1 hpa

92 %

6.4 km/h aus 117

19.3 km/h aus S

11.7 C

12.8 C

12.8 C

13.0 C

0 W/m

0.00 mm

02:15

12.9 C

1011.0 hpa

92 %

4.8 km/h aus 117

16.1 km/h aus S

11.7 C

13.0 C

12.9 C

13.0 C

0 W/m

0.00 mm

02:20

12.9 C

1011.0 hpa

92 %

6.4 km/h aus 116

17.7 km/h aus S

11.7 C

12.8 C

12.8 C

13.0 C

0 W/m

0.00 mm

02:25

12.9 C

1011.0 hpa

92 %

3.2 km/h aus 114

12.9 km/h aus S

11.7 C

13.0 C

12.9 C

13.0 C

0 W/m

0.00 mm

02:30

12.9 C

1011.0 hpa

92 %

4.8 km/h aus 117

17.7 km/h aus S

11.7 C

13.0 C

12.9 C

13.0 C

0 W/m

0.00 mm

02:35

13.0 C

1011.0 hpa

92 %

4.8 km/h aus 117

16.1 km/h aus SSE

11.7 C

13.1 C

13.0 C

13.1 C

0 W/m

0.00 mm

02:40

13.0 C

1011.0 hpa

92 %

8.0 km/h aus 117

17.7 km/h aus SSE

11.7 C

12.6 C

12.6 C

13.1 C

0 W/m

0.00 mm

02:45

13.0 C

1010.7 hpa

92 %

8.0 km/h aus 116

27.4 km/h aus SE

11.7 C

12.6 C

12.6 C

13.1 C

0 W/m

0.00 mm

02:50

12.9 C

1010.7 hpa

92 %

4.8 km/h aus 114

17.7 km/h aus S

11.7 C

13.0 C

12.9 C

13.0 C

0 W/m

0.00 mm

02:55

12.9 C

1010.7 hpa

92 %

8.0 km/h aus 116

19.3 km/h aus S

11.6 C

12.4 C

12.4 C

12.9 C

0 W/m

0.00 mm

03:00

12.8 C

1010.7 hpa

92 %

6.4 km/h aus 117

22.5 km/h aus S

11.6 C

12.7 C

12.6 C

12.9 C

0 W/m

0.00 mm

03:05

12.9 C

1010.7 hpa

92 %

6.4 km/h aus 117

19.3 km/h aus S

11.6 C

12.7 C

12.7 C

12.9 C

0 W/m

0.00 mm

03:10

12.9 C

1010.7 hpa

92 %

4.8 km/h aus 116

19.3 km/h aus S

11.6 C

12.9 C

12.9 C

12.9 C

0 W/m

0.00 mm

03:15

12.9 C

1010.7 hpa

92 %

6.4 km/h aus 114

17.7 km/h aus S

11.6 C

12.7 C

12.7 C

12.9 C

0 W/m

0.00 mm

03:20

12.9 C

1010.7 hpa

92 %

4.8 km/h aus 118

16.1 km/h aus S

11.6 C

12.9 C

12.9 C

12.9 C

0 W/m

0.00 mm

03:25

12.8 C

1010.7 hpa

92 %

4.8 km/h aus 117

19.3 km/h aus SSE

11.6 C

12.9 C

12.8 C

12.9 C

0 W/m

0.00 mm

03:30

12.8 C

1010.3 hpa

92 %

6.4 km/h aus 117

19.3 km/h aus S

11.5 C

12.6 C

12.6 C

12.8 C

0 W/m

0.00 mm

03:35

12.7 C

1010.3 hpa

92 %

6.4 km/h aus 115

16.1 km/h aus SSE

11.5 C

12.6 C

12.5 C

12.8 C

0 W/m

0.00 mm

03:40

12.7 C

1010.3 hpa

92 %

3.2 km/h aus 114

14.5 km/h aus SSE

11.4 C

12.7 C

12.7 C

12.7 C

0 W/m

0.00 mm

03:45

12.7 C

1010.3 hpa

92 %

3.2 km/h aus 115

16.1 km/h aus SSE

11.4 C

12.7 C

12.7 C

12.7 C

0 W/m

0.00 mm

03:50

12.7 C

1010.3 hpa

92 %

3.2 km/h aus 117

11.3 km/h aus SE

11.4 C

12.7 C

12.7 C

12.7 C

0 W/m

0.00 mm

03:55

12.6 C

1010.3 hpa

92 %

3.2 km/h aus 116

14.5 km/h aus SSE

11.3 C

12.7 C

12.6 C

12.7 C

0 W/m

0.00 mm

04:00

12.6 C

1010.2 hpa

92 %

4.8 km/h aus 117

16.1 km/h aus S

11.3 C

12.6 C

12.6 C

12.6 C

0 W/m

0.00 mm

04:05

12.6 C

1010.2 hpa

92 %

4.8 km/h aus 115

14.5 km/h aus S

11.3 C

12.6 C

12.6 C

12.6 C

0 W/m

0.00 mm

04:10

12.6 C

1010.2 hpa

92 %

4.8 km/h aus 115

11.3 km/h aus S

11.3 C

12.6 C

12.6 C

12.6 C

0 W/m

0.00 mm

04:15

12.6 C

1010.3 hpa

92 %

4.8 km/h aus 117

12.9 km/h aus S

11.3 C

12.6 C

12.6 C

12.6 C

0 W/m

0.00 mm

04:20

12.6 C

1010.3 hpa

93 %

4.8 km/h aus 117

14.5 km/h aus S

11.5 C

12.7 C

12.6 C

12.7 C

0 W/m

0.00 mm

04:25

12.7 C

1010.3 hpa

93 %

6.4 km/h aus 116

19.3 km/h aus S

11.6 C

12.6 C

12.4 C

12.8 C

0 W/m

0.00 mm

04:30

12.8 C

1010.3 hpa

93 %

8.0 km/h aus 115

17.7 km/h aus SSW

11.7 C

12.4 C

12.3 C

12.9 C

0 W/m

0.00 mm

04:35

12.9 C

1010.3 hpa

93 %

6.4 km/h aus 114

17.7 km/h aus SW

11.8 C

12.8 C

12.7 C

13.0 C

0 W/m

0.00 mm

04:40

12.9 C

1010.3 hpa

93 %

6.4 km/h aus 116

19.3 km/h aus S

11.8 C

12.9 C

12.8 C

13.1 C

0 W/m

0.00 mm

04:45

13.0 C

1010.6 hpa

93 %

8.0 km/h aus 117

35.4 km/h aus S

11.9 C

12.7 C

12.6 C

13.1 C

0 W/m

0.00 mm

04:50

13.1 C

1010.6 hpa

93 %

12.9 km/h aus 116

27.4 km/h aus SW

11.9 C

11.8 C

11.7 C

13.2 C

0 W/m

0.00 mm

04:55

13.0 C

1010.6 hpa

92 %

12.9 km/h aus 115

24.1 km/h aus S

11.7 C

11.7 C

11.7 C

13.1 C

0 W/m

0.00 mm

05:00

12.9 C

1010.7 hpa

92 %

11.3 km/h aus 115

24.1 km/h aus SSW

11.7 C

12.1 C

12.0 C

13.0 C

0 W/m

0.00 mm

05:05

12.9 C

1010.7 hpa

91 %

9.7 km/h aus 117

22.5 km/h aus SSW

11.5 C

12.2 C

12.1 C

12.9 C

0 W/m

0.00 mm

05:10

12.9 C

1010.7 hpa

91 %

11.3 km/h aus 116

20.9 km/h aus SSW

11.5 C

11.9 C

11.9 C

12.9 C

0 W/m

0.00 mm

05:15

12.8 C

1010.5 hpa

90 %

8.0 km/h aus 117

17.7 km/h aus S

11.2 C

12.4 C

12.3 C

12.9 C

0 W/m

0.00 mm

05:20

12.8 C

1010.5 hpa

90 %

8.0 km/h aus 115

22.5 km/h aus SW

11.2 C

12.4 C

12.3 C

12.9 C

0 W/m

0.00 mm

05:25

12.8 C

1010.5 hpa

89 %

6.4 km/h aus 114

20.9 km/h aus SSW

11.1 C

12.7 C

12.6 C

12.9 C

0 W/m

0.00 mm

05:30

12.8 C

1010.3 hpa

89 %

6.4 km/h aus 117

17.7 km/h aus S

11.0 C

12.6 C

12.6 C

12.8 C

0 W/m

0.00 mm

05:35

12.7 C

1010.3 hpa

88 %

8.0 km/h aus 117

19.3 km/h aus SW

10.8 C

12.2 C

12.2 C

12.7 C

0 W/m

0.00 mm

05:40

12.7 C

1010.3 hpa

88 %

4.8 km/h aus 117

14.5 km/h aus SSW

10.8 C

12.7 C

12.7 C

12.7 C

0 W/m

0.00 mm

05:45

12.6 C

1010.2 hpa

87 %

6.4 km/h aus 116

17.7 km/h aus SSW

10.5 C

12.4 C

12.4 C

12.6 C

0 W/m

0.00 mm

05:50

12.5 C

1010.2 hpa

86 %

8.0 km/h aus 113

16.1 km/h aus SSW

10.2 C

11.9 C

11.9 C

12.4 C

0 W/m

0.00 mm

05:55

12.5 C

1010.2 hpa

86 %

6.4 km/h aus 117

14.5 km/h aus SW

10.2 C

12.2 C

12.3 C

12.4 C

0 W/m

0.00 mm

06:00

12.4 C

1010.2 hpa

86 %

3.2 km/h aus 117

9.7 km/h aus SSW

10.2 C

12.4 C

12.4 C

12.4 C

0 W/m

0.00 mm

06:05

12.4 C

1010.2 hpa

86 %

3.2 km/h aus 117

14.5 km/h aus SW

10.2 C

12.4 C

12.4 C

12.4 C

0 W/m

0.00 mm

06:10

12.4 C

1010.2 hpa

86 %

3.2 km/h aus 116

9.7 km/h aus SSW

10.1 C

12.3 C

12.4 C

12.3 C

0 W/m

0.00 mm

06:15

12.4 C

1010.2 hpa

85 %

4.8 km/h aus 114

11.3 km/h aus SSW

9.9 C

12.3 C

12.4 C

12.3 C

0 W/m

0.00 mm

06:20

12.3 C

1010.2 hpa

85 %

3.2 km/h aus 117

8.0 km/h aus S

9.8 C

12.2 C

12.3 C

12.2 C

0 W/m

0.00 mm

06:25

12.2 C

1010.2 hpa

85 %

1.6 km/h aus 116

8.0 km/h aus SSW

9.8 C

12.2 C

12.2 C

12.2 C

0 W/m

0.00 mm

06:30

12.1 C

1010.2 hpa

84 %

4.8 km/h aus 117

14.5 km/h aus SW

9.5 C

12.1 C

12.1 C

12.1 C

0 W/m

0.00 mm

06:35

11.9 C

1010.2 hpa

84 %

4.8 km/h aus 116

11.3 km/h aus SSW

9.3 C

11.9 C

11.9 C

11.9 C

0 W/m

0.00 mm

06:40

11.8 C

1010.2 hpa

83 %

4.8 km/h aus 114

11.3 km/h aus SSW

9.0 C

11.7 C

11.8 C

11.7 C

0 W/m

0.00 mm

06:45

11.8 C

1010.2 hpa

82 %

4.8 km/h aus 117

9.7 km/h aus SSW

8.8 C

11.7 C

11.8 C

11.7 C

0 W/m

0.00 mm

06:50

11.7 C

1010.2 hpa

82 %

4.8 km/h aus 117

9.7 km/h aus SSW

8.7 C

11.6 C

11.7 C

11.6 C

0 W/m

0.00 mm

06:55

11.7 C

1010.2 hpa

82 %

1.6 km/h aus 117

8.0 km/h aus SSW

8.7 C

11.6 C

11.7 C

11.6 C

0 W/m

0.00 mm

07:00

11.7 C

1010.2 hpa

82 %

1.6 km/h aus 117

8.0 km/h aus SSW

8.7 C

11.6 C

11.7 C

11.6 C

0 W/m

0.00 mm

07:05

11.7 C

1010.2 hpa

82 %

1.6 km/h aus 114

11.3 km/h aus SW

8.7 C

11.6 C

11.7 C

11.6 C

0 W/m

0.00 mm

07:10

11.6 C

1010.2 hpa

82 %

1.6 km/h aus 116

3.2 km/h aus S

8.6 C

11.5 C

11.6 C

11.5 C

0 W/m

0.00 mm

07:15

11.6 C

1010.2 hpa

82 %

1.6 km/h aus 117

3.2 km/h aus SSE

8.6 C

11.5 C

11.6 C

11.5 C

0 W/m

0.00 mm

07:20

11.6 C

1010.2 hpa

82 %

1.6 km/h aus 117

3.2 km/h aus SSE

8.6 C

11.5 C

11.6 C

11.5 C

0 W/m

0.00 mm

07:25

11.6 C

1010.2 hpa

82 %

0.0 km/h aus 115

3.2 km/h aus SE

8.6 C

11.4 C

11.6 C

11.4 C

0 W/m

0.00 mm

07:30

11.5 C

1010.2 hpa

82 %

1.6 km/h aus 115

3.2 km/h aus SE

8.5 C

11.4 C

11.5 C

11.4 C

3 W/m

0.00 mm

07:35

11.4 C

1010.2 hpa

82 %

1.6 km/h aus 116

4.8 km/h aus SSE

8.5 C

11.3 C

11.4 C

11.3 C

7 W/m

0.00 mm

07:40

11.4 C

1010.2 hpa

83 %

1.6 km/h aus 116

6.4 km/h aus SSE

8.6 C

11.3 C

11.4 C

11.3 C

11 W/m

0.00 mm

07:45

11.3 C

1010.3 hpa

83 %

1.6 km/h aus 117

6.4 km/h aus S

8.5 C

11.3 C

11.3 C

11.3 C

15 W/m

0.00 mm

07:50

11.3 C

1010.3 hpa

84 %

3.2 km/h aus 117

9.7 km/h aus S

8.7 C

11.3 C

11.3 C

11.3 C

20 W/m

0.00 mm

07:55

11.3 C

1010.3 hpa

84 %

1.6 km/h aus 115

4.8 km/h aus S

8.7 C

11.3 C

11.3 C

11.3 C

24 W/m

0.00 mm

08:00

11.3 C

1010.2 hpa

85 %

3.2 km/h aus 114

9.7 km/h aus S

8.9 C

11.3 C

11.3 C

11.3 C

26 W/m

0.00 mm

08:05

11.4 C

1010.2 hpa

85 %

1.6 km/h aus 117

6.4 km/h aus S

9.0 C

11.4 C

11.4 C

11.4 C

25 W/m

0.00 mm

08:10

11.4 C

1010.2 hpa

85 %

3.2 km/h aus 116

9.7 km/h aus SSE

9.0 C

11.4 C

11.4 C

11.4 C

20 W/m

0.00 mm

08:15

11.4 C

1010.1 hpa

85 %

3.2 km/h aus 117

8.0 km/h aus SSE

9.0 C

11.4 C

11.4 C

11.4 C

18 W/m

0.00 mm

08:20

11.4 C

1010.1 hpa

85 %

1.6 km/h aus 116

9.7 km/h aus SSE

9.0 C

11.4 C

11.4 C

11.4 C

21 W/m

0.00 mm

08:25

11.4 C

1010.1 hpa

85 %

3.2 km/h aus 113

9.7 km/h aus S

9.0 C

11.4 C

11.4 C

11.4 C

27 W/m

0.00 mm

08:30

11.4 C

1009.9 hpa

85 %

3.2 km/h aus 117

11.3 km/h aus SSE

9.0 C

11.4 C

11.4 C

11.4 C

32 W/m

0.00 mm

08:35

11.5 C

1009.9 hpa

85 %

1.6 km/h aus 117

6.4 km/h aus SSE

9.1 C

11.4 C

11.5 C

11.4 C

49 W/m

0.00 mm

08:40

11.5 C

1009.9 hpa

85 %

1.6 km/h aus 118

4.8 km/h aus SSE

9.1 C

11.4 C

11.5 C

11.4 C

63 W/m

0.00 mm

08:45

11.6 C

1009.8 hpa

86 %

1.6 km/h aus 116

6.4 km/h aus SE

9.3 C

11.6 C

11.6 C

11.6 C

72 W/m

0.00 mm

08:50

11.6 C

1009.8 hpa

85 %

3.2 km/h aus 114

9.7 km/h aus SSE

9.2 C

11.6 C

11.6 C

11.6 C

60 W/m

0.00 mm

08:55

11.6 C

1009.8 hpa

85 %

4.8 km/h aus 116

14.5 km/h aus S

9.2 C

11.6 C

11.6 C

11.6 C

63 W/m

0.00 mm

09:00

11.7 C

1009.7 hpa

85 %

4.8 km/h aus 117

11.3 km/h aus S

9.2 C

11.6 C

11.7 C

11.6 C

53 W/m

0.00 mm

09:05

11.7 C

1009.7 hpa

85 %

1.6 km/h aus 117

6.4 km/h aus SE

9.3 C

11.7 C

11.7 C

11.7 C

50 W/m

0.00 mm

09:10

11.8 C

1009.7 hpa

84 %

1.6 km/h aus 117

8.0 km/h aus SSE

9.2 C

11.7 C

11.8 C

11.7 C

38 W/m

0.00 mm

09:15

11.8 C

1009.4 hpa

84 %

3.2 km/h aus 114

11.3 km/h aus SSE

9.2 C

11.8 C

11.8 C

11.8 C

32 W/m

0.00 mm

09:20

11.9 C

1009.4 hpa

85 %

4.8 km/h aus 116

11.3 km/h aus SSE

9.4 C

11.8 C

11.9 C

11.8 C

48 W/m

0.00 mm

09:25

11.9 C

1009.4 hpa

85 %

3.2 km/h aus 115

9.7 km/h aus SSE

9.5 C

11.9 C

11.9 C

11.9 C

54 W/m

0.00 mm

09:30

12.0 C

1009.5 hpa

85 %

3.2 km/h aus 117

8.0 km/h aus SSE

9.6 C

11.9 C

12.0 C

11.9 C

60 W/m

0.00 mm

09:35

12.1 C

1009.5 hpa

85 %

3.2 km/h aus 117

8.0 km/h aus S

9.6 C

12.0 C

12.1 C

12.0 C

105 W/m

0.00 mm

09:40

12.3 C

1009.5 hpa

85 %

1.6 km/h aus 114

6.4 km/h aus SSE

9.9 C

12.3 C

12.3 C

12.3 C

155 W/m

0.00 mm

09:45

12.8 C

1009.1 hpa

84 %

3.2 km/h aus 116

9.7 km/h aus SSE

10.1 C

12.7 C

12.8 C

12.7 C

183 W/m

0.00 mm

09:50

12.9 C

1009.1 hpa

84 %

3.2 km/h aus 115

8.0 km/h aus SSE

10.3 C

12.9 C

12.9 C

12.9 C

201 W/m

0.00 mm

09:55

13.2 C

1009.1 hpa

83 %

3.2 km/h aus 117

14.5 km/h aus SSE

10.4 C

13.1 C

13.2 C

13.1 C

277 W/m

0.00 mm

10:00

13.6 C

1008.8 hpa

82 %

3.2 km/h aus 117

12.9 km/h aus SE

10.5 C

13.4 C

13.6 C

13.4 C

348 W/m

0.00 mm

10:05

13.9 C

1008.8 hpa

81 %

3.2 km/h aus 114

11.3 km/h aus SE

10.7 C

13.7 C

13.9 C

13.7 C

279 W/m

0.00 mm

10:10

13.7 C

1008.8 hpa

82 %

4.8 km/h aus 116

12.9 km/h aus SE

10.7 C

13.6 C

13.7 C

13.6 C

202 W/m

0.00 mm

10:15

13.7 C

1008.5 hpa

82 %

4.8 km/h aus 116

11.3 km/h aus SE

10.7 C

13.6 C

13.7 C

13.6 C

278 W/m

0.00 mm

10:20

14.1 C

1008.5 hpa

83 %

4.8 km/h aus 117

14.5 km/h aus SE

11.2 C

13.9 C

14.1 C

13.9 C

305 W/m

0.00 mm

10:25

14.2 C

1008.5 hpa

82 %

6.4 km/h aus 117

17.7 km/h aus SE

11.2 C

14.1 C

14.2 C

14.1 C

307 W/m

0.00 mm

10:30

14.5 C

1008.4 hpa

82 %

4.8 km/h aus 115

14.5 km/h aus SSE

11.5 C

14.4 C

14.5 C

14.4 C

323 W/m

0.00 mm

10:35

14.7 C

1008.4 hpa

82 %

3.2 km/h aus 116

9.7 km/h aus SE

11.7 C

14.7 C

14.7 C

14.7 C

419 W/m

0.00 mm

10:40

14.8 C

1008.4 hpa

80 %

3.2 km/h aus 117

11.3 km/h aus SE

11.4 C

14.7 C

14.8 C

14.7 C

251 W/m

0.00 mm

10:45

14.9 C

1008.3 hpa

81 %

4.8 km/h aus 117

17.7 km/h aus S

11.7 C

14.8 C

14.9 C

14.8 C

184 W/m

0.00 mm

10:50

14.9 C

1008.3 hpa

81 %

11.3 km/h aus 114

24.1 km/h aus SSE

11.7 C

14.3 C

14.4 C

14.8 C

150 W/m

0.00 mm

10:55

14.9 C

1008.3 hpa

80 %

12.9 km/h aus 114

24.1 km/h aus S

11.5 C

13.9 C

14.0 C

14.8 C

160 W/m

0.00 mm

11:00

15.0 C

1008.2 hpa

81 %

12.9 km/h aus 117

27.4 km/h aus SSE

11.8 C

13.9 C

14.1 C

14.9 C

183 W/m

0.00 mm

11:05

15.1 C

1008.2 hpa

81 %

9.7 km/h aus 117

20.9 km/h aus S

11.9 C

14.7 C

14.8 C

15.1 C

177 W/m

0.00 mm

11:10

15.3 C

1008.2 hpa

80 %

11.3 km/h aus 117

29.0 km/h aus S

11.8 C

14.7 C

14.8 C

15.2 C

213 W/m

0.00 mm

11:15

15.3 C

1008.3 hpa

79 %

16.1 km/h aus 115

30.6 km/h aus SSE

11.7 C

13.5 C

13.6 C

15.2 C

185 W/m

0.00 mm

11:20

15.3 C

1008.3 hpa

79 %

9.7 km/h aus 116

25.7 km/h aus S

11.7 C

14.9 C

15.1 C

15.2 C

156 W/m

0.00 mm

11:25

15.5 C

1008.3 hpa

79 %

11.3 km/h aus 116

25.7 km/h aus SSE

11.9 C

14.9 C

15.1 C

15.4 C

245 W/m

0.00 mm

11:30

15.8 C

1008.1 hpa

77 %

14.5 km/h aus 116

29.0 km/h aus S

11.8 C

14.5 C

14.6 C

15.7 C

322 W/m

0.00 mm

11:35

15.8 C

1008.1 hpa

79 %

12.9 km/h aus 116

29.0 km/h aus S

12.1 C

14.9 C

15.0 C

15.7 C

212 W/m

0.00 mm

11:40

15.7 C

1008.1 hpa

79 %

16.1 km/h aus 114

27.4 km/h aus S

12.0 C

13.9 C

14.0 C

15.6 C

204 W/m

0.00 mm

11:45

15.7 C

1008.1 hpa

80 %

11.3 km/h aus 117

20.9 km/h aus S

12.2 C

15.2 C

15.2 C

15.6 C

208 W/m

0.00 mm

11:50

15.7 C

1008.1 hpa

79 %

12.9 km/h aus 118

24.1 km/h aus SSE

12.0 C

14.8 C

14.8 C

15.6 C

187 W/m

0.00 mm

11:55

15.7 C

1008.1 hpa

80 %

9.7 km/h aus 117

22.5 km/h aus SSW

12.3 C

15.5 C

15.6 C

15.7 C

251 W/m

0.00 mm

12:00

15.9 C

1007.8 hpa

80 %

16.1 km/h aus 116

29.0 km/h aus S

12.5 C

14.3 C

14.3 C

15.9 C

274 W/m

0.00 mm

12:05

15.9 C

1007.8 hpa

78 %

17.7 km/h aus 115

33.8 km/h aus SSE

12.1 C

13.9 C

13.9 C

15.9 C

238 W/m

0.00 mm

12:10

16.0 C

1007.8 hpa

77 %

16.1 km/h aus 117

25.7 km/h aus SSE

12.0 C

14.3 C

14.4 C

15.9 C

227 W/m

0.00 mm

12:15

16.2 C

1007.6 hpa

78 %

16.1 km/h aus 117

32.2 km/h aus S

12.3 C

14.5 C

14.6 C

16.1 C

248 W/m

0.00 mm

12:20

16.7 C

1007.6 hpa

76 %

14.5 km/h aus 117

27.4 km/h aus S

12.5 C

15.6 C

15.6 C

16.7 C

382 W/m

0.00 mm

12:25

16.9 C

1007.6 hpa

76 %

16.1 km/h aus 115

29.0 km/h aus SSE

12.6 C

15.4 C

15.4 C

16.8 C

360 W/m

0.00 mm

12:30

17.1 C

1007.3 hpa

74 %

14.5 km/h aus 116

29.0 km/h aus SSW

12.4 C

15.9 C

16.0 C

16.9 C

430 W/m

0.00 mm

12:35

16.8 C

1007.3 hpa

74 %

20.9 km/h aus 117

38.6 km/h aus S

12.1 C

14.2 C

14.3 C

16.7 C

311 W/m

0.00 mm

12:40

16.8 C

1007.3 hpa

75 %

17.7 km/h aus 117

33.8 km/h aus S

12.4 C

14.9 C

15.0 C

16.7 C

385 W/m

0.00 mm

12:45

17.1 C

1007.1 hpa

73 %

14.5 km/h aus 116

25.7 km/h aus SE

12.2 C

16.0 C

16.1 C

17.0 C

419 W/m

0.00 mm

12:50

17.2 C

1007.1 hpa

72 %

14.5 km/h aus 114

30.6 km/h aus S

12.1 C

16.1 C

16.2 C

17.1 C

321 W/m

0.00 mm

12:55

16.7 C

1007.1 hpa

73 %

16.1 km/h aus 117

29.0 km/h aus SSE

11.9 C

15.1 C

15.2 C

16.6 C

265 W/m

0.00 mm

13:00

16.9 C

1007.1 hpa

73 %

16.1 km/h aus 117

33.8 km/h aus S

12.1 C

15.4 C

15.5 C

16.8 C

378 W/m

0.00 mm

13:05

17.0 C

1007.1 hpa

71 %

19.3 km/h aus 117

32.2 km/h aus S

11.7 C

14.7 C

14.8 C

16.8 C

271 W/m

0.00 mm

13:10

16.7 C

1007.1 hpa

71 %

16.1 km/h aus 115

35.4 km/h aus S

11.4 C

14.9 C

15.2 C

16.4 C

146 W/m

0.00 mm

13:15

16.4 C

1006.6 hpa

71 %

16.1 km/h aus 113

29.0 km/h aus SSW

11.2 C

14.6 C

14.9 C

16.2 C

155 W/m

0.00 mm

13:20

16.3 C

1006.6 hpa

71 %

16.1 km/h aus 117

29.0 km/h aus S

11.0 C

14.4 C

14.7 C

16.0 C

127 W/m

0.00 mm

13:25

16.3 C

1006.6 hpa

72 %

14.5 km/h aus 116

27.4 km/h aus SE

11.2 C

14.8 C

15.1 C

16.0 C

142 W/m

0.00 mm

13:30

16.1 C

1006.3 hpa

72 %

14.5 km/h aus 117

33.8 km/h aus SSE

11.1 C

14.7 C

14.9 C

15.8 C

134 W/m

0.00 mm

13:35

16.1 C

1006.3 hpa

72 %

14.5 km/h aus 114

30.6 km/h aus SSE

11.1 C

14.7 C

14.9 C

15.8 C

124 W/m

0.00 mm

13:40

16.1 C

1006.3 hpa

71 %

17.7 km/h aus 117

30.6 km/h aus S

10.8 C

13.8 C

14.1 C

15.8 C

107 W/m

0.00 mm

13:45

16.1 C

1006.1 hpa

71 %

14.5 km/h aus 116

27.4 km/h aus S

10.8 C

14.6 C

14.9 C

15.8 C

72 W/m

0.00 mm

13:50

16.1 C

1006.1 hpa

71 %

14.5 km/h aus 116

29.0 km/h aus SE

10.8 C

14.7 C

14.9 C

15.8 C

85 W/m

0.00 mm

13:55

16.1 C

1006.1 hpa

72 %

14.5 km/h aus 115

30.6 km/h aus S

11.1 C

14.7 C

14.9 C

15.8 C

103 W/m

0.00 mm

14:00

16.1 C

1006.1 hpa

72 %

19.3 km/h aus 116

32.2 km/h aus S

11.1 C

13.6 C

13.8 C

15.8 C

118 W/m

0.00 mm

14:05

16.2 C

1006.1 hpa

72 %

16.1 km/h aus 117

27.4 km/h aus SSW

11.1 C

14.3 C

14.6 C

15.9 C

126 W/m

0.00 mm

14:10

16.2 C

1006.1 hpa

72 %

12.9 km/h aus 116

24.1 km/h aus S

11.2 C

15.2 C

15.5 C

15.9 C

114 W/m

0.00 mm

14:15

16.2 C

1006.0 hpa

73 %

12.9 km/h aus 117

27.4 km/h aus S

11.4 C

15.3 C

15.5 C

16.0 C

121 W/m

0.00 mm

14:20

16.2 C

1006.0 hpa

73 %

17.7 km/h aus 114

33.8 km/h aus SSE

11.4 C

14.1 C

14.3 C

16.0 C

98 W/m

0.00 mm

14:25

16.2 C

1006.0 hpa

74 %

19.3 km/h aus 115

30.6 km/h aus S

11.6 C

13.8 C

13.9 C

16.1 C

87 W/m

0.00 mm

14:30

16.2 C

1005.9 hpa

74 %

16.1 km/h aus 116

29.0 km/h aus S

11.5 C

14.3 C

14.6 C

15.9 C

76 W/m

0.00 mm

14:35

16.2 C

1005.9 hpa

74 %

16.1 km/h aus 117

30.6 km/h aus S

11.5 C

14.3 C

14.6 C

15.9 C

48 W/m

0.00 mm

14:40

16.1 C

1005.9 hpa

74 %

19.3 km/h aus 117

30.6 km/h aus S

11.5 C

13.6 C

13.8 C

15.9 C

59 W/m

0.00 mm

14:45

16.1 C

1005.7 hpa

75 %

16.1 km/h aus 113

27.4 km/h aus S

11.7 C

14.3 C

14.5 C

15.9 C

73 W/m

0.00 mm

14:50

16.1 C

1005.7 hpa

75 %

11.3 km/h aus 114

25.7 km/h aus S

11.7 C

15.6 C

15.8 C

15.9 C

61 W/m

0.00 mm

14:55

16.1 C

1005.7 hpa

75 %

16.1 km/h aus 115

29.0 km/h aus SSE

11.6 C

14.3 C

14.4 C

15.9 C

57 W/m

0.00 mm

15:00

16.0 C

1005.5 hpa

75 %

14.5 km/h aus 118

27.4 km/h aus SSE

11.6 C

14.7 C

14.8 C

15.8 C

58 W/m

0.00 mm

15:05

16.0 C

1005.5 hpa

75 %

20.9 km/h aus 115

30.6 km/h aus S

11.6 C

13.3 C

13.4 C

15.8 C

60 W/m

0.00 mm

15:10

15.9 C

1005.5 hpa

76 %

19.3 km/h aus 114

32.2 km/h aus S

11.7 C

13.5 C

13.7 C

15.8 C

83 W/m

0.00 mm

15:15

16.0 C

1005.5 hpa

77 %

16.1 km/h aus 117

25.7 km/h aus S

12.0 C

14.3 C

14.4 C

15.9 C

97 W/m

0.00 mm

15:20

16.1 C

1005.5 hpa

78 %

14.5 km/h aus 116

30.6 km/h aus S

12.3 C

14.9 C

14.9 C

16.1 C

162 W/m

0.00 mm

15:25

16.2 C

1005.5 hpa

78 %

24.1 km/h aus 117

33.8 km/h aus SSE

12.4 C

13.2 C

13.3 C

16.2 C

157 W/m

0.00 mm

15:30

16.2 C

1005.3 hpa

78 %

17.7 km/h aus 116

33.8 km/h aus S

12.4 C

14.2 C

14.3 C

16.2 C

71 W/m

0.00 mm

15:35

16.2 C

1005.3 hpa

78 %

17.7 km/h aus 115

27.4 km/h aus SSE

12.4 C

14.2 C

14.3 C

16.2 C

52 W/m

0.00 mm

15:40

16.2 C

1005.3 hpa

78 %

20.9 km/h aus 116

35.4 km/h aus SSW

12.3 C

13.6 C

13.6 C

16.1 C

41 W/m

0.00 mm

15:45

16.2 C

1005.0 hpa

79 %

16.1 km/h aus 117

32.2 km/h aus S

12.5 C

14.6 C

14.6 C

16.2 C

24 W/m

0.00 mm

15:50

16.1 C

1005.0 hpa

79 %

14.5 km/h aus 117

27.4 km/h aus S

12.5 C

14.9 C

14.9 C

16.1 C

24 W/m

0.00 mm

15:55

16.1 C

1005.0 hpa

80 %

14.5 km/h aus 114

29.0 km/h aus SSE

12.6 C

14.9 C

14.9 C

16.1 C

25 W/m

0.00 mm

16:00

16.1 C

1005.0 hpa

80 %

16.1 km/h aus 115

30.6 km/h aus SSE

12.6 C

14.4 C

14.4 C

16.1 C

21 W/m

0.00 mm

16:05

16.1 C

1005.0 hpa

81 %

12.9 km/h aus 118

27.4 km/h aus SSE

12.8 C

15.3 C

15.3 C

16.1 C

18 W/m

0.00 mm

16:10

16.1 C

1005.0 hpa

82 %

17.7 km/h aus 116

29.0 km/h aus SE

13.0 C

14.2 C

14.1 C

16.1 C

19 W/m

0.00 mm

16:15

16.0 C

1005.0 hpa

82 %

16.1 km/h aus 116

27.4 km/h aus SSE

12.9 C

14.4 C

14.4 C

16.1 C

10 W/m

0.00 mm

16:20

16.0 C

1005.0 hpa

82 %

9.7 km/h aus 114

22.5 km/h aus SSE

12.9 C

15.9 C

15.9 C

16.1 C

14 W/m

0.00 mm

16:25

16.0 C

1005.0 hpa

83 %

19.3 km/h aus 116

32.2 km/h aus SSE

13.1 C

13.8 C

13.7 C

16.1 C

11 W/m

0.00 mm

16:30

16.0 C

1004.9 hpa

83 %

19.3 km/h aus 117

30.6 km/h aus SSE

13.1 C

13.8 C

13.7 C

16.1 C

12 W/m

0.00 mm

16:35

16.0 C

1004.9 hpa

84 %

16.1 km/h aus 116

27.4 km/h aus S

13.3 C

14.4 C

14.4 C

16.1 C

10 W/m

0.00 mm

16:40

16.0 C

1004.9 hpa

84 %

17.7 km/h aus 117

30.6 km/h aus S

13.3 C

14.1 C

14.1 C

16.1 C

5 W/m

0.00 mm

16:45

16.0 C

1004.9 hpa

84 %

20.9 km/h aus 113

32.2 km/h aus S

13.3 C

13.5 C

13.4 C

16.1 C

3 W/m

0.00 mm

16:50

15.9 C

1004.9 hpa

85 %

12.9 km/h aus 117

24.1 km/h aus SSW

13.4 C

15.3 C

15.2 C

16.1 C

0 W/m

0.00 mm

16:55

15.9 C

1004.9 hpa

85 %

12.9 km/h aus 117

25.7 km/h aus S

13.4 C

15.3 C

15.2 C

16.1 C

0 W/m

0.00 mm

17:00

16.0 C

1004.7 hpa

85 %

17.7 km/h aus 116

32.2 km/h aus SSE

13.5 C

14.2 C

14.1 C

16.1 C

0 W/m

0.00 mm

17:05

16.0 C

1004.7 hpa

85 %

19.3 km/h aus 116

33.8 km/h aus SSE

13.5 C

13.8 C

13.7 C

16.1 C

0 W/m

0.00 mm

17:10

16.1 C

1004.7 hpa

86 %

17.7 km/h aus 115

37.0 km/h aus S

13.7 C

14.2 C

14.1 C

16.2 C

0 W/m

0.00 mm

17:15

16.1 C

1004.7 hpa

86 %

19.3 km/h aus 117

32.2 km/h aus SSE

13.8 C

13.9 C

13.8 C

16.2 C

0 W/m

0.00 mm

17:20

16.2 C

1004.7 hpa

86 %

12.9 km/h aus 117

29.0 km/h aus SSE

13.8 C

15.6 C

15.4 C

16.3 C

0 W/m

0.00 mm

17:25

16.2 C

1004.7 hpa

86 %

12.9 km/h aus 117

27.4 km/h aus SSE

13.8 C

15.6 C

15.4 C

16.3 C

0 W/m

0.00 mm

17:30

16.2 C

1004.8 hpa

86 %

14.5 km/h aus 115

27.4 km/h aus S

13.8 C

15.1 C

15.0 C

16.3 C

0 W/m

0.00 mm

17:35

16.2 C

1004.8 hpa

86 %

14.5 km/h aus 115

32.2 km/h aus S

13.9 C

15.2 C

15.1 C

16.4 C

0 W/m

0.00 mm

17:40

16.3 C

1004.8 hpa

87 %

12.9 km/h aus 117

27.4 km/h aus S

14.1 C

15.8 C

15.6 C

16.4 C

0 W/m

0.00 mm

17:45

16.3 C

1004.8 hpa

87 %

11.3 km/h aus 117

27.4 km/h aus S

14.1 C

16.2 C

16.0 C

16.4 C

0 W/m

0.00 mm

17:50

16.3 C

1004.8 hpa

87 %

16.1 km/h aus 117

32.2 km/h aus SSE

14.1 C

14.9 C

14.7 C

16.4 C

0 W/m

0.00 mm

17:55

16.3 C

1004.8 hpa

87 %

12.9 km/h aus 114

25.7 km/h aus S

14.1 C

15.8 C

15.6 C

16.4 C

0 W/m

0.00 mm

18:00

16.2 C

1004.6 hpa

88 %

12.9 km/h aus 115

25.7 km/h aus SSE

14.2 C

15.7 C

15.5 C

16.4 C

0 W/m

0.00 mm

18:05

16.2 C

1004.6 hpa

88 %

9.7 km/h aus 116

20.9 km/h aus S

14.2 C

16.3 C

16.1 C

16.4 C

0 W/m

0.00 mm

18:10

16.2 C

1004.6 hpa

88 %

9.7 km/h aus 117

20.9 km/h aus S

14.2 C

16.3 C

16.1 C

16.4 C

0 W/m

0.00 mm

18:15

16.2 C

1004.7 hpa

89 %

14.5 km/h aus 118

27.4 km/h aus S

14.4 C

15.3 C

15.1 C

16.4 C

0 W/m

0.00 mm

18:20

16.2 C

1004.7 hpa

89 %

14.5 km/h aus 114

29.0 km/h aus S

14.4 C

15.2 C

15.0 C

16.4 C

0 W/m

0.00 mm

18:25

16.2 C

1004.7 hpa

89 %

12.9 km/h aus 116

27.4 km/h aus S

14.4 C

15.7 C

15.4 C

16.4 C

0 W/m

0.00 mm

18:30

16.2 C

1004.5 hpa

89 %

12.9 km/h aus 116

29.0 km/h aus SSE

14.4 C

15.7 C

15.4 C

16.4 C

0 W/m

0.00 mm

18:35

16.2 C

1004.5 hpa

90 %

11.3 km/h aus 117

22.5 km/h aus SSE

14.5 C

16.1 C

15.8 C

16.4 C

0 W/m

0.00 mm

18:40

16.2 C

1004.5 hpa

90 %

12.9 km/h aus 117

29.0 km/h aus S

14.5 C

15.7 C

15.4 C

16.4 C

0 W/m

0.00 mm

18:45

16.2 C

1004.5 hpa

90 %

11.3 km/h aus 114

24.1 km/h aus SSE

14.5 C

16.1 C

15.8 C

16.4 C

0 W/m

0.00 mm

18:50

16.2 C

1004.5 hpa

90 %

12.9 km/h aus 117

27.4 km/h aus SSE

14.6 C

15.7 C

15.5 C

16.4 C

0 W/m

0.00 mm

18:55

16.2 C

1004.5 hpa

90 %

14.5 km/h aus 116

27.4 km/h aus SSE

14.6 C

15.3 C

15.1 C

16.4 C

0 W/m

0.00 mm

19:00

16.3 C

1004.4 hpa

90 %

12.9 km/h aus 116

27.4 km/h aus S

14.6 C

15.8 C

15.6 C

16.5 C

0 W/m

0.00 mm

19:05

16.3 C

1004.4 hpa

90 %

12.9 km/h aus 116

27.4 km/h aus SSE

14.6 C

15.8 C

15.6 C

16.5 C

0 W/m

0.00 mm

19:10

16.3 C

1004.4 hpa

90 %

20.9 km/h aus 114

37.0 km/h aus SSE

14.7 C

14.1 C

13.8 C

16.6 C

0 W/m

0.00 mm

19:15

16.3 C

1004.4 hpa

90 %

14.5 km/h aus 118

32.2 km/h aus S

14.7 C

15.4 C

15.2 C

16.6 C

0 W/m

0.00 mm

19:20

16.4 C

1004.4 hpa

90 %

12.9 km/h aus 117

30.6 km/h aus SSW

14.7 C

16.0 C

15.7 C

16.7 C

0 W/m

0.00 mm

19:25

16.4 C

1004.4 hpa

90 %

14.5 km/h aus 116

30.6 km/h aus SSW

14.8 C

15.6 C

15.3 C

16.7 C

0 W/m

0.00 mm

19:30

16.6 C

1004.3 hpa

89 %

14.5 km/h aus 115

35.4 km/h aus SSW

14.7 C

15.7 C

15.4 C

16.8 C

0 W/m

0.00 mm

19:35

16.7 C

1004.3 hpa

89 %

14.5 km/h aus 115

30.6 km/h aus SSW

14.8 C

15.8 C

15.6 C

16.9 C

0 W/m

0.00 mm

19:40

16.7 C

1004.3 hpa

88 %

14.5 km/h aus 116

32.2 km/h aus SW

14.7 C

15.8 C

15.6 C

16.9 C

0 W/m

0.00 mm

19:45

16.8 C

1004.4 hpa

88 %

20.9 km/h aus 117

33.8 km/h aus SSE

14.8 C

14.7 C

14.4 C

17.1 C

0 W/m

0.00 mm

19:50

16.9 C

1004.4 hpa

87 %

16.1 km/h aus 117

33.8 km/h aus S

14.8 C

15.8 C

15.5 C

17.2 C

0 W/m

0.00 mm

19:55

17.0 C

1004.4 hpa

87 %

19.3 km/h aus 115

32.2 km/h aus S

14.8 C

15.1 C

14.8 C

17.3 C

0 W/m

0.00 mm

20:00

17.0 C

1004.4 hpa

87 %

12.9 km/h aus 115

25.7 km/h aus S

14.8 C

16.7 C

16.4 C

17.3 C

0 W/m

0.00 mm

20:05

17.1 C

1004.4 hpa

87 %

14.5 km/h aus 117

27.4 km/h aus SSE

14.9 C

16.3 C

16.0 C

17.3 C

0 W/m

0.00 mm

20:10

17.1 C

1004.4 hpa

86 %

19.3 km/h aus 117

37.0 km/h aus SSW

14.7 C

15.3 C

15.0 C

17.4 C

0 W/m

0.00 mm

20:15

17.2 C

1004.4 hpa

86 %

17.7 km/h aus 117

38.6 km/h aus S

14.8 C

15.7 C

15.4 C

17.4 C

0 W/m

0.00 mm

20:20

17.2 C

1004.4 hpa

86 %

19.3 km/h aus 115

40.2 km/h aus S

14.9 C

15.4 C

15.1 C

17.5 C

0 W/m

0.00 mm

20:25

17.3 C

1004.4 hpa

86 %

12.9 km/h aus 117

32.2 km/h aus S

14.9 C

17.1 C

16.8 C

17.6 C

0 W/m

0.00 mm

20:30

17.3 C

1004.4 hpa

85 %

19.3 km/h aus 116

35.4 km/h aus SSW

14.8 C

15.5 C

15.2 C

17.6 C

0 W/m

0.00 mm

20:35

17.4 C

1004.4 hpa

85 %

14.5 km/h aus 117

30.6 km/h aus SSW

14.8 C

16.7 C

16.4 C

17.7 C

0 W/m

0.00 mm

20:40

17.4 C

1004.4 hpa

85 %

14.5 km/h aus 115

30.6 km/h aus SSW

14.8 C

16.7 C

16.4 C

17.7 C

0 W/m

0.00 mm

20:45

17.4 C

1004.4 hpa

85 %

14.5 km/h aus 113

29.0 km/h aus S

14.9 C

16.8 C

16.5 C

17.7 C

0 W/m

0.00 mm

20:50

17.4 C

1004.4 hpa

84 %

12.9 km/h aus 117

32.2 km/h aus SSW

14.7 C

17.2 C

16.9 C

17.7 C

0 W/m

0.00 mm

20:55

17.5 C

1004.4 hpa

84 %

19.3 km/h aus 116

35.4 km/h aus SSW

14.8 C

15.7 C

15.4 C

17.8 C

0 W/m

0.00 mm

21:00

17.6 C

1004.4 hpa

84 %

19.3 km/h aus 116

35.4 km/h aus SSW

14.8 C

15.8 C

15.5 C

17.8 C

0 W/m

0.00 mm

21:05

17.6 C

1004.4 hpa

84 %

17.7 km/h aus 115

33.8 km/h aus SSW

14.8 C

16.1 C

15.8 C

17.8 C

0 W/m

0.00 mm

21:10

17.6 C

1004.4 hpa

84 %

16.1 km/h aus 114

43.5 km/h aus S

14.9 C

16.6 C

16.3 C

17.9 C

0 W/m

0.00 mm

21:15

17.6 C

1004.3 hpa

84 %

9.7 km/h aus 117

20.9 km/h aus SSW

14.8 C

17.8 C

17.6 C

17.8 C

0 W/m

0.00 mm

21:20

17.6 C

1004.3 hpa

84 %

14.5 km/h aus 117

25.7 km/h aus SSW

14.8 C

16.9 C

16.6 C

17.8 C

0 W/m

0.00 mm

21:25

17.6 C

1004.3 hpa

84 %

16.1 km/h aus 118

29.0 km/h aus SW

14.8 C

16.5 C

16.2 C

17.8 C

0 W/m

0.00 mm

21:30

17.6 C

1004.3 hpa

84 %

19.3 km/h aus 114

33.8 km/h aus SW

14.8 C

15.8 C

15.5 C

17.8 C

0 W/m

0.00 mm

21:35

17.6 C

1004.3 hpa

84 %

20.9 km/h aus 116

33.8 km/h aus S

14.9 C

15.6 C

15.3 C

17.9 C

0 W/m

0.00 mm

21:40

17.6 C

1004.3 hpa

84 %

19.3 km/h aus 117

37.0 km/h aus S

14.9 C

15.8 C

15.6 C

17.9 C

0 W/m

0.00 mm

21:45

17.6 C

1004.3 hpa

84 %

17.7 km/h aus 117

37.0 km/h aus S

14.9 C

16.2 C

15.9 C

17.9 C

0 W/m

0.00 mm

21:50

17.6 C

1004.3 hpa

84 %

17.7 km/h aus 115

33.8 km/h aus SSW

14.9 C

16.2 C

15.9 C

17.9 C

0 W/m

0.00 mm

21:55

17.6 C

1004.3 hpa

84 %

19.3 km/h aus 114

35.4 km/h aus S

14.8 C

15.8 C

15.5 C

17.8 C

0 W/m

0.00 mm

22:00

17.6 C

1004.4 hpa

84 %

19.3 km/h aus 116

35.4 km/h aus S

14.8 C

15.8 C

15.5 C

17.8 C

0 W/m

0.00 mm

22:05

17.5 C

1004.4 hpa

84 %

17.7 km/h aus 117

35.4 km/h aus S

14.8 C

16.1 C

15.8 C

17.8 C

0 W/m

0.00 mm

22:10

17.5 C

1004.4 hpa

84 %

14.5 km/h aus 116

25.7 km/h aus S

14.8 C

16.8 C

16.6 C

17.8 C

0 W/m

0.00 mm

22:15

17.5 C

1004.3 hpa

84 %

17.7 km/h aus 115

37.0 km/h aus S

14.8 C

16.1 C

15.8 C

17.8 C

0 W/m

0.00 mm

22:20

17.5 C

1004.3 hpa

84 %

19.3 km/h aus 115

32.2 km/h aus SSW

14.8 C

15.7 C

15.4 C

17.8 C

0 W/m

0.00 mm

22:25

17.5 C

1004.3 hpa

84 %

16.1 km/h aus 117

30.6 km/h aus SSE

14.8 C

16.4 C

16.2 C

17.8 C

0 W/m

0.00 mm

22:30

17.5 C

1004.1 hpa

84 %

14.5 km/h aus 118

30.6 km/h aus SSW

14.8 C

16.8 C

16.6 C

17.8 C

0 W/m

0.00 mm

22:35

17.4 C

1004.1 hpa

84 %

14.5 km/h aus 117

33.8 km/h aus S

14.7 C

16.8 C

16.5 C

17.7 C

0 W/m

0.00 mm

22:40

17.4 C

1004.1 hpa

85 %

17.7 km/h aus 114

33.8 km/h aus SE

14.8 C

15.9 C

15.6 C

17.7 C

0 W/m

0.00 mm

22:45

17.4 C

1004.3 hpa

85 %

14.5 km/h aus 116

30.6 km/h aus SSW

14.8 C

16.7 C

16.4 C

17.7 C

0 W/m

0.00 mm

22:50

17.4 C

1004.3 hpa

85 %

12.9 km/h aus 117

30.6 km/h aus S

14.8 C

17.2 C

16.9 C

17.7 C

0 W/m

0.00 mm

22:55

17.4 C

1004.3 hpa

85 %

12.9 km/h aus 116

29.0 km/h aus SSW

14.9 C

17.2 C

16.9 C

17.7 C

0 W/m

0.00 mm

23:00

17.4 C

1004.3 hpa

85 %

17.7 km/h aus 116

35.4 km/h aus S

14.9 C

15.9 C

15.7 C

17.7 C

0 W/m

0.00 mm

23:05

17.4 C

1004.3 hpa

85 %

17.7 km/h aus 113

33.8 km/h aus S

14.9 C

15.9 C

15.7 C

17.7 C

0 W/m

0.00 mm

23:10

17.5 C

1004.3 hpa

85 %

17.7 km/h aus 117

29.0 km/h aus SSE

14.9 C

16.1 C

15.8 C

17.8 C

0 W/m

0.51 mm

23:15

17.4 C

1004.2 hpa

86 %

8.0 km/h aus 116

19.3 km/h aus SW

15.1 C

17.8 C

17.4 C

17.8 C

0 W/m

0.25 mm

23:20

17.3 C

1004.2 hpa

86 %

12.9 km/h aus 117

29.0 km/h aus SSE

15.0 C

17.2 C

16.8 C

17.7 C

0 W/m

0.00 mm

23:25

17.2 C

1004.2 hpa

86 %

12.9 km/h aus 116

30.6 km/h aus S

14.9 C

17.0 C

16.7 C

17.5 C

0 W/m

0.00 mm

23:30

17.1 C

1003.7 hpa

87 %

17.7 km/h aus 115

33.8 km/h aus S

14.9 C

15.6 C

15.3 C

17.4 C

0 W/m

0.00 mm

23:35

17.0 C

1003.7 hpa

87 %

11.3 km/h aus 117

25.7 km/h aus S

14.8 C

17.2 C

16.9 C

17.3 C

0 W/m

0.00 mm

23:40

16.9 C

1003.7 hpa

87 %

11.3 km/h aus 117

27.4 km/h aus SSW

14.8 C

17.1 C

16.8 C

17.2 C

0 W/m

0.00 mm

23:45

16.9 C

1003.9 hpa

88 %

12.9 km/h aus 116

30.6 km/h aus SSE

14.9 C

16.6 C

16.3 C

17.2 C

0 W/m

0.00 mm

23:50

16.8 C

1003.9 hpa

88 %

14.5 km/h aus 113

25.7 km/h aus SSW

14.8 C

16.1 C

15.8 C

17.1 C

0 W/m

0.00 mm

23:55

16.8 C

1003.9 hpa

88 %

12.9 km/h aus 114

27.4 km/h aus SSE

14.8 C

16.6 C

16.3 C

17.1 C

0 W/m

0.00 mm